IBE2902 LEMD-LEBL

Flight info

Callsign IBE2902
Flight time N/A
Altitude 30000
Route PINAR N870 PONEN T600 CASPE
Aircraft A320/M-SDE3FGHIRWY/LB1

Departure

Time 2026-05-05 16:55
Airport Adolfo Suárez Madrid–Barajas Airport (LEMD)

Arrival

Time N/A
Airport Josep Tarradellas Barcelona-El Prat Airport (LEBL)
Time Latitude Longitude Altitude Speed Heading
2026-05-05 16:05 40.49483 -3.59187 2030 ft 0 kts 91°
2026-05-05 16:36 40.49483 -3.59190 2022 ft 3 kts 90°
2026-05-05 16:36 40.49482 -3.59224 2026 ft 4 kts 76°
2026-05-05 16:36 40.49472 -3.59255 2027 ft 4 kts 44°
2026-05-05 16:36 40.49454 -3.59268 2032 ft 1 kts 359°
2026-05-05 16:43 40.49460 -3.59268 2034 ft 2 kts 359°
2026-05-05 16:44 40.49477 -3.59268 2026 ft 5 kts 359°
2026-05-05 16:44 40.49559 -3.59269 2022 ft 15 kts 360°
2026-05-05 16:44 40.49681 -3.59269 2022 ft 18 kts 358°
2026-05-05 16:44 40.49740 -3.59256 2027 ft 0 kts 47°
2026-05-05 16:45 40.49740 -3.59253 2027 ft 1 kts 68°
2026-05-05 16:45 40.49743 -3.59177 2022 ft 15 kts 88°
2026-05-05 16:45 40.49717 -3.58983 2023 ft 26 kts 109°
2026-05-05 16:45 40.49686 -3.58854 2028 ft 12 kts 152°
2026-05-05 16:46 40.49615 -3.58823 2022 ft 11 kts 172°
2026-05-05 16:46 40.49501 -3.58822 2022 ft 21 kts 182°
2026-05-05 16:46 40.49321 -3.58833 2022 ft 30 kts 177°
2026-05-05 16:46 40.49105 -3.58816 2022 ft 32 kts 178°
2026-05-05 16:47 40.48912 -3.58815 2022 ft 28 kts 180°
2026-05-05 16:47 40.48759 -3.58782 2028 ft 2 kts 122°
2026-05-05 16:47 40.48756 -3.58752 2025 ft 9 kts 86°
2026-05-05 16:47 40.48757 -3.58571 2021 ft 24 kts 91°
2026-05-05 16:48 40.48756 -3.58341 2013 ft 26 kts 89°
2026-05-05 16:48 40.48762 -3.58125 2006 ft 17 kts 88°
2026-05-05 16:48 40.48837 -3.58035 2002 ft 15 kts 40°
2026-05-05 16:48 40.48856 -3.57899 1998 ft 16 kts 88°
2026-05-05 16:49 40.48858 -3.57741 1992 ft 18 kts 90°
2026-05-05 16:49 40.48858 -3.57580 1990 ft 18 kts 90°
2026-05-05 16:49 40.48858 -3.57420 1987 ft 18 kts 90°
2026-05-05 16:49 40.48860 -3.57184 1982 ft 32 kts 89°
2026-05-05 16:50 40.48860 -3.56877 1977 ft 30 kts 90°
2026-05-05 16:50 40.48862 -3.56599 1973 ft 31 kts 89°
2026-05-05 16:50 40.48865 -3.56343 1964 ft 23 kts 90°
2026-05-05 16:50 40.48971 -3.56246 1962 ft 20 kts 355°
2026-05-05 16:51 40.49120 -3.56243 1965 ft 23 kts
2026-05-05 16:51 40.49279 -3.56246 1961 ft 24 kts 360°
2026-05-05 16:51 40.49443 -3.56247 1961 ft 24 kts 360°
2026-05-05 16:51 40.49609 -3.56248 1961 ft 24 kts 360°
2026-05-05 16:52 40.49777 -3.56250 1961 ft 24 kts 360°
2026-05-05 16:52 40.49899 -3.56250 1961 ft 10 kts 360°
2026-05-05 16:52 40.49974 -3.56256 1961 ft 11 kts 355°
2026-05-05 16:52 40.50023 -3.56196 1960 ft 11 kts 79°
2026-05-05 16:53 40.50026 -3.56095 1958 ft 11 kts 87°
2026-05-05 16:53 40.50039 -3.56016 1962 ft 7 kts 65°
2026-05-05 16:53 40.50061 -3.55974 1960 ft 6 kts 50°
2026-05-05 16:53 40.50131 -3.55921 1960 ft 12 kts 10°
2026-05-05 16:54 40.50135 -3.55920 1960 ft 0 kts
2026-05-05 16:54 40.50186 -3.55916 1961 ft 33 kts
2026-05-05 16:55 40.50708 -3.55925 1965 ft 115 kts 360°
2026-05-05 16:55 40.51744 -3.55920 1965 ft 178 kts
2026-05-05 16:55 40.52992 -3.55835 2752 ft 181 kts 357°
2026-05-05 16:55 40.54302 -3.55776 3479 ft 196 kts
2026-05-05 16:56 40.55709 -3.55312 3837 ft 220 kts 15°
2026-05-05 16:56 40.57180 -3.54611 4549 ft 225 kts 15°
2026-05-05 16:56 40.58642 -3.53910 5430 ft 223 kts 14°
2026-05-05 16:56 40.59620 -3.53373 5955 ft 230 kts 25°
2026-05-05 16:57 40.60960 -3.51969 6316 ft 260 kts 41°
2026-05-05 16:57 40.62297 -3.50260 6848 ft 275 kts 37°
2026-05-05 16:57 40.63774 -3.48622 7553 ft 281 kts 35°
2026-05-05 16:57 40.65316 -3.46985 8343 ft 287 kts 35°
2026-05-05 16:58 40.66882 -3.45321 9150 ft 292 kts 36°
2026-05-05 16:58 40.68473 -3.43605 9910 ft 299 kts 37°
2026-05-05 16:58 40.70099 -3.41825 10435 ft 313 kts 37°
2026-05-05 16:58 40.71735 -3.39769 10653 ft 339 kts 51°
2026-05-05 16:59 40.72843 -3.36959 11139 ft 352 kts 67°
2026-05-05 16:59 40.73765 -3.33949 11861 ft 356 kts 67°
2026-05-05 16:59 40.74690 -3.30897 12590 ft 360 kts 67°
2026-05-05 16:59 40.75622 -3.27813 13314 ft 363 kts 67°
2026-05-05 17:00 40.76557 -3.24699 13979 ft 368 kts 67°
2026-05-05 17:00 40.77502 -3.21550 14601 ft 371 kts 67°
2026-05-05 17:00 40.78474 -3.18380 15226 ft 374 kts 65°
2026-05-05 17:00 40.79513 -3.15212 15836 ft 377 kts 64°
2026-05-05 17:01 40.80594 -3.12040 16452 ft 381 kts 64°
2026-05-05 17:01 40.81694 -3.08850 17059 ft 384 kts 64°
2026-05-05 17:01 40.82809 -3.05614 17664 ft 388 kts 64°
2026-05-05 17:01 40.83939 -3.02311 18246 ft 392 kts 64°
2026-05-05 17:02 40.85062 -2.98998 18734 ft 397 kts 64°
2026-05-05 17:02 40.86184 -2.95654 19208 ft 401 kts 64°
2026-05-05 17:02 40.87313 -2.92263 19691 ft 405 kts 64°
2026-05-05 17:02 40.88448 -2.88842 20263 ft 407 kts 65°
2026-05-05 17:03 40.89587 -2.85411 20789 ft 409 kts 65°
2026-05-05 17:03 40.90733 -2.81962 21273 ft 412 kts 65°
2026-05-05 17:03 40.91890 -2.78481 21743 ft 415 kts 65°
2026-05-05 17:03 40.93054 -2.74972 22207 ft 418 kts 65°
2026-05-05 17:04 40.94227 -2.71434 22677 ft 422 kts 65°
2026-05-05 17:04 40.95404 -2.67875 23143 ft 425 kts 65°
2026-05-05 17:04 40.96594 -2.64268 23578 ft 427 kts 65°
2026-05-05 17:04 40.97769 -2.60645 23951 ft 431 kts 67°
2026-05-05 17:05 40.98789 -2.56903 24291 ft 435 kts 71°
2026-05-05 17:05 40.99630 -2.53039 24615 ft 439 kts 75°
2026-05-05 17:05 41.00360 -2.49034 24938 ft 443 kts 77°
2026-05-05 17:05 41.01017 -2.45088 25243 ft 447 kts 77°
2026-05-05 17:06 41.01686 -2.41050 25563 ft 450 kts 77°
2026-05-05 17:06 41.02395 -2.36944 25874 ft 454 kts 76°
2026-05-05 17:06 41.03140 -2.32853 26181 ft 458 kts 75°
2026-05-05 17:06 41.03918 -2.28746 26484 ft 461 kts 75°
2026-05-05 17:07 41.04717 -2.24614 26765 ft 465 kts 75°
2026-05-05 17:07 41.05526 -2.20439 27052 ft 469 kts 75°
2026-05-05 17:07 41.06333 -2.16234 27341 ft 473 kts 75°
2026-05-05 17:07 41.07148 -2.11932 27631 ft 476 kts 75°
2026-05-05 17:08 41.07950 -2.07664 27910 ft 480 kts 75°
2026-05-05 17:08 41.08755 -2.03351 28194 ft 484 kts 75°
2026-05-05 17:08 41.09560 -1.99011 28478 ft 487 kts 75°
2026-05-05 17:08 41.10373 -1.94625 28754 ft 491 kts 75°
2026-05-05 17:09 41.11189 -1.90211 29028 ft 494 kts 76°
2026-05-05 17:09 41.12008 -1.85773 29327 ft 497 kts 76°
2026-05-05 17:09 41.12829 -1.81314 29647 ft 499 kts 76°
2026-05-05 17:09 41.13656 -1.76832 29890 ft 501 kts 76°
2026-05-05 17:10 41.15280 -1.68002 29938 ft 483 kts 76°
2026-05-05 17:10 41.16852 -1.59375 29940 ft 480 kts 76°
2026-05-05 17:11 41.18424 -1.50717 29935 ft 479 kts 76°
2026-05-05 17:11 41.19985 -1.42116 29938 ft 480 kts 77°
2026-05-05 17:12 41.21535 -1.33493 29940 ft 480 kts 77°
2026-05-05 17:12 41.22100 -1.29136 29939 ft 478 kts 89°
2026-05-05 17:12 41.21904 -1.24765 29943 ft 477 kts 101°
2026-05-05 17:13 41.20564 -1.16083 29939 ft 471 kts 117°
2026-05-05 17:13 41.19018 -1.12333 29931 ft 457 kts 133°
2026-05-05 17:13 41.16992 -1.09163 29936 ft 449 kts 139°
2026-05-05 17:14 41.13157 -1.02502 29933 ft 465 kts 120°
2026-05-05 17:14 41.12168 -0.98382 29925 ft 474 kts 107°
2026-05-05 17:14 41.11445 -0.94105 29935 ft 476 kts 107°
2026-05-05 17:15 41.10007 -0.85519 29933 ft 477 kts 107°
2026-05-05 17:15 41.08561 -0.76933 29934 ft 477 kts 107°
2026-05-05 17:16 41.07096 -0.68350 29929 ft 478 kts 108°
2026-05-05 17:16 41.05611 -0.59712 29926 ft 478 kts 108°
2026-05-05 17:17 41.04137 -0.51126 29919 ft 477 kts 108°
2026-05-05 17:17 41.02659 -0.42549 29918 ft 478 kts 108°
2026-05-05 17:18 41.01170 -0.33979 29922 ft 477 kts 108°
2026-05-05 17:18 40.99675 -0.25421 29923 ft 477 kts 108°
2026-05-05 17:19 40.98175 -0.16857 29919 ft 477 kts 108°
2026-05-05 17:19 40.96669 -0.08308 29922 ft 477 kts 108°
2026-05-05 17:20 40.95151 0.00255 29886 ft 477 kts 109°
2026-05-05 17:20 40.93628 0.08803 29898 ft 478 kts 109°
2026-05-05 17:21 40.92090 0.17444 29895 ft 480 kts 109°
2026-05-05 17:22 40.89759 0.30399 29925 ft 489 kts 110°
2026-05-05 17:22 40.88172 0.39145 29889 ft 490 kts 110°
2026-05-05 17:23 40.86588 0.47896 29896 ft 490 kts 111°
2026-05-05 17:23 40.85259 0.55256 29906 ft 491 kts 111°
2026-05-05 17:24 40.83653 0.64032 29908 ft 491 kts 111°
2026-05-05 17:24 40.82028 0.72791 29912 ft 491 kts 111°
2026-05-05 17:25 40.80406 0.81542 29888 ft 490 kts 111°
2026-05-05 17:25 40.78789 0.90270 29920 ft 489 kts 111°
2026-05-05 17:26 40.77178 0.98977 29928 ft 488 kts 111°
2026-05-05 17:26 40.75555 1.07678 29923 ft 488 kts 111°
2026-05-05 17:27 40.73918 1.16353 29883 ft 487 kts 111°
2026-05-05 17:27 40.72282 1.24977 29926 ft 484 kts 112°
2026-05-05 17:28 40.70637 1.33637 29929 ft 483 kts 112°
2026-05-05 17:28 40.69004 1.42200 29924 ft 481 kts 112°
2026-05-05 17:29 40.67374 1.50745 29924 ft 480 kts 112°
2026-05-05 17:29 40.65739 1.59269 29904 ft 479 kts 112°
2026-05-05 17:30 40.64100 1.67763 29913 ft 478 kts 112°
2026-05-05 17:30 40.63276 1.71997 29811 ft 476 kts 112°
2026-05-05 17:30 40.62465 1.76180 29520 ft 468 kts 112°
2026-05-05 17:30 40.61666 1.80309 29259 ft 464 kts 112°
2026-05-05 17:31 40.60871 1.84406 28972 ft 461 kts 112°
2026-05-05 17:31 40.60075 1.88478 28694 ft 458 kts 112°
2026-05-05 17:31 40.59278 1.92530 28392 ft 456 kts 112°
2026-05-05 17:31 40.58486 1.96560 28124 ft 453 kts 112°
2026-05-05 17:32 40.57701 2.00563 27855 ft 451 kts 112°
2026-05-05 17:32 40.56920 2.04552 27586 ft 449 kts 112°
2026-05-05 17:32 40.56138 2.08522 27328 ft 447 kts 112°
2026-05-05 17:32 40.55354 2.12470 27072 ft 446 kts 112°
2026-05-05 17:33 40.54568 2.16401 26808 ft 444 kts 112°
2026-05-05 17:33 40.53789 2.20303 26394 ft 439 kts 112°
2026-05-05 17:33 40.53017 2.24179 25896 ft 437 kts 112°
2026-05-05 17:33 40.52247 2.28034 25399 ft 435 kts 112°
2026-05-05 17:34 40.51336 2.31772 24887 ft 422 kts 123°
2026-05-05 17:34 40.49905 2.35094 24408 ft 404 kts 136°
2026-05-05 17:34 40.48084 2.37793 23990 ft 386 kts 149°
2026-05-05 17:34 40.46002 2.39888 23571 ft 369 kts 160°
2026-05-05 17:35 40.43764 2.41374 23093 ft 353 kts 170°
2026-05-05 17:35 40.41472 2.42289 22708 ft 339 kts 176°